| time (UTC) | temp F | wind direction | speed knots | gust knots | rain 1hr in | rain 24hr in | rain mn in | humidity % | barometer mb |
| 20260504214719 | 72 | 7 | 2.6 | 2.6 | 0.00 | 0.00 | 0.00 | 40 | 1012.6 |
| 20260504214216 | 73 | 142 | 0.9 | 1.7 | 0.00 | 0.00 | 0.00 | 39 | 1012.5 |
| 20260504213712 | 73 | 290 | 1.7 | 1.7 | 0.00 | 0.00 | 0.00 | 40 | 1012.6 |
| 20260504213208 | 73 | 39 | 2.6 | 2.6 | 0.00 | 0.00 | 0.00 | 40 | 1012.7 |
| 20260504212700 | 73 | 68 | 3.5 | 5.2 | 0.00 | 0.00 | 0.00 | 39 | 1012.8 |
| 20260504212156 | 73 | 34 | 0.9 | 0.9 | 0.00 | 0.00 | 0.00 | 39 | 1012.7 |
| 20260504211654 | 73 | 40 | 2.6 | 4.3 | 0.00 | 0.00 | 0.00 | 38 | 1012.7 |
| 20260504211150 | 74 | 48 | 0.9 | 1.7 | 0.00 | 0.00 | 0.00 | 39 | 1012.7 |
| 20260504210648 | 74 | 64 | 0.0 | 0.9 | 0.00 | 0.00 | 0.00 | 39 | 1012.6 |
| 20260504210144 | 73 | 97 | 2.6 | 5.2 | 0.00 | 0.00 | 0.00 | 38 | 1012.6 |
| 20260504205642 | 74 | 58 | 1.7 | 2.6 | 0.00 | 0.00 | 0.00 | 38 | 1012.7 |
| 20260504205139 | 74 | 51 | 0.9 | 1.7 | 0.00 | 0.00 | 0.00 | 39 | 1012.8 |
| 20260504204637 | 73 | 67 | 3.5 | 5.2 | 0.00 | 0.00 | 0.00 | 39 | 1012.9 |
| 20260504204136 | 74 | 73 | 1.7 | 1.7 | 0.00 | 0.00 | 0.00 | 38 | 1012.7 |
| 20260504203634 | 74 | 83 | 2.6 | 4.3 | 0.00 | 0.00 | 0.00 | 39 | 1012.8 |
| 20260504203132 | 74 | 52 | 0.9 | 1.7 | 0.00 | 0.00 | 0.00 | 38 | 1012.8 |
| 20260504202631 | 74 | 56 | 3.5 | 5.2 | 0.00 | 0.00 | 0.00 | 37 | 1012.9 |
| 20260504202129 | 76 | 40 | 0.9 | 2.6 | 0.00 | 0.00 | 0.00 | 36 | 1013.0 |
| 20260504201625 | 75 | 64 | 1.7 | 1.7 | 0.00 | 0.00 | 0.00 | 36 | 1012.9 |
| 20260504201123 | 75 | 329 | 0.9 | 0.9 | 0.00 | 0.00 | 0.00 | 36 | 1013.0 |
| 20260504200620 | 75 | 54 | 1.7 | 1.7 | 0.00 | 0.00 | 0.00 | 36 | 1013.2 |
| 20260504200116 | 75 | 114 | 0.0 | 0.9 | 0.00 | 0.00 | 0.00 | 37 | 1013.1 |
| 20260504195612 | 75 | 61 | 1.7 | 1.7 | 0.00 | 0.00 | 0.00 | 36 | 1013.2 |
| 20260504195109 | 75 | 90 | 2.6 | 4.3 | 0.00 | 0.00 | 0.00 | 36 | 1013.4 |
| 20260504194606 | 76 | 50 | 1.7 | 1.7 | 0.00 | 0.00 | 0.00 | 36 | 1013.4 |
| 20260504194101 | 76 | 191 | 0.0 | 0.9 | 0.00 | 0.00 | 0.00 | 37 | 1013.4 |
| 20260504193558 | 76 | 76 | 0.9 | 0.9 | 0.00 | 0.00 | 0.00 | 36 | 1013.6 |
| 20260504193057 | 75 | 58 | 0.9 | 0.9 | 0.00 | 0.00 | 0.00 | 38 | 1013.7 |
| 20260504192555 | 75 | 354 | 0.9 | 1.7 | 0.00 | 0.00 | 0.00 | 36 | 1013.7 |
| 20260504192052 | 75 | 83 | 0.0 | 0.9 | 0.00 | 0.00 | 0.00 | 40 | 1013.7 |
| 20260504191550 | 74 | 58 | 0.9 | 1.7 | 0.00 | 0.00 | 0.00 | 37 | 1014.0 |
| 20260504191046 | 73 | 47 | 2.6 | 4.3 | 0.00 | 0.00 | 0.00 | 37 | 1013.9 |
| 20260504190542 | 74 | 59 | 3.5 | 4.3 | 0.00 | 0.00 | 0.00 | 36 | 1014.2 |
| 20260504190038 | 74 | 300 | 1.7 | 2.6 | 0.00 | 0.00 | 0.00 | 37 | 1014.1 |
| 20260504185536 | 75 | 73 | 1.7 | 1.7 | 0.00 | 0.00 | 0.00 | 36 | 1014.2 |
| 20260504185032 | 74 | 51 | 0.9 | 0.9 | 0.00 | 0.00 | 0.00 | 36 | 1014.0 |
| 20260504184528 | 74 | 283 | 0.9 | 1.7 | 0.00 | 0.00 | 0.00 | 36 | 1014.3 |
| 20260504184023 | 74 | 234 | 2.6 | 4.3 | 0.00 | 0.00 | 0.00 | 36 | 1014.4 |
| 20260504183521 | 74 | 57 | 0.9 | 0.9 | 0.00 | 0.00 | 0.00 | 37 | 1014.7 |
| 20260504183019 | 73 | 62 | 1.7 | 1.7 | 0.00 | 0.00 | 0.00 | 36 | 1014.5 |
| 20260504182515 | 73 | 44 | 1.7 | 1.7 | 0.00 | 0.00 | 0.00 | 36 | 1014.5 |
| 20260504182013 | 74 | 82 | 0.9 | 0.9 | 0.00 | 0.00 | 0.00 | 35 | 1014.4 |
| 20260504181509 | 73 | 89 | 0.0 | 0.9 | 0.00 | 0.00 | 0.00 | 34 | 1014.7 |
| 20260504181008 | 74 | 176 | 0.9 | 0.9 | 0.00 | 0.00 | 0.00 | 36 | 1015.1 |
| 20260504180507 | 75 | 60 | 0.9 | 0.9 | 0.00 | 0.00 | 0.00 | 32 | 1014.7 |
| 20260504180005 | 74 | 40 | 0.9 | 0.9 | 0.00 | 0.00 | 0.00 | 31 | 1014.9 |
| 20260504175502 | 75 | 281 | 0.9 | 1.7 | 0.00 | 0.00 | 0.00 | 33 | 1014.9 |
| 20260504174959 | 75 | 52 | 1.7 | 1.7 | 0.00 | 0.00 | 0.00 | 33 | 1015.0 |
| 20260504174456 | 74 | 304 | 0.9 | 0.9 | 0.00 | 0.00 | 0.00 | 31 | 1014.9 |
| 20260504173953 | 75 | 293 | 2.6 | 4.3 | 0.00 | 0.00 | 0.00 | 31 | 1015.2 |
| 20260504173450 | 74 | 269 | 2.6 | 5.2 | 0.00 | 0.00 | 0.00 | 32 | 1015.5 |
| 20260504172947 | 74 | 185 | 2.6 | 4.3 | 0.00 | 0.00 | 0.00 | 32 | 1015.4 |
| 20260504172443 | 75 | 206 | 0.9 | 1.7 | 0.00 | 0.00 | 0.00 | 31 | 1015.4 |
| 20260504171940 | 74 | 151 | 0.0 | 0.0 | 0.00 | 0.00 | 0.00 | 32 | 1015.3 |
| 20260504171437 | 73 | 56 | 0.0 | 0.9 | 0.00 | 0.00 | 0.00 | 33 | 1015.3 |
| 20260504170934 | 72 | 245 | 0.9 | 0.9 | 0.00 | 0.00 | 0.00 | 32 | 1015.5 |
| 20260504170430 | 72 | 83 | 0.9 | 0.9 | 0.00 | 0.00 | 0.00 | 33 | 1015.4 |
| 20260504160349 | 70 | 82 | 0.9 | 0.9 | 0.00 | 0.00 | 0.00 | 37 | 1016.2 |
| 20260504150814 | 67 | 55 | 0.9 | 0.9 | 0.00 | 0.00 | 0.00 | 36 | 1016.9 |
| 20260504150310 | 67 | 76 | 1.7 | 1.7 | 0.00 | 0.00 | 0.00 | 41 | 1016.9 |
| 20260504141241 | 62 | 62 | 0.0 | 0.9 | 0.00 | 0.00 | 0.00 | 48 | 1017.1 |
| 20260504140737 | 62 | 261 | 0.9 | 0.9 | 0.00 | 0.00 | 0.00 | 45 | 1017.0 |
| 20260504140233 | 62 | 272 | 0.9 | 1.7 | 0.00 | 0.00 | 0.00 | 47 | 1017.3 |
| 20260504130702 | 59 | 214 | 0.9 | 0.9 | 0.00 | 0.00 | 0.00 | 51 | 1017.5 |
| 20260504130157 | 59 | 210 | 0.9 | 0.9 | 0.00 | 0.00 | 0.00 | 53 | 1017.6 |
| 20260504120122 | 54 | 94 | 0.0 | 0.0 | 0.00 | 0.00 | 0.00 | 59 | 1017.7 |
| 20260504110549 | 51 | 57 | 0.9 | 0.9 | 0.00 | 0.00 | 0.00 | 66 | 1018.1 |
| 20260504100511 | 51 | 109 | 0.0 | 0.0 | 0.00 | 0.00 | 0.00 | 66 | 1017.9 |
| 20260504081904 | 51 | 97 | 0.0 | 0.0 | 0.00 | 0.00 | 0.00 | 63 | 1018.5 |
| 20260504081401 | 51 | 95 | 0.0 | 0.0 | 0.00 | 0.00 | 0.00 | 63 | 1018.4 |
| 20260504080856 | 51 | 76 | 0.0 | 0.0 | 0.00 | 0.00 | 0.00 | 63 | 1018.4 |
| 20260504080354 | 51 | 76 | 0.0 | 0.0 | 0.00 | 0.00 | 0.00 | 62 | 1018.5 |
| 20260504070321 | 51 | 85 | 0.0 | 0.0 | 0.00 | 0.00 | 0.00 | 60 | 1018.5 |
| 20260504060241 | 49 | 79 | 0.0 | 0.0 | 0.00 | 0.00 | 0.00 | 61 | 1018.6 |
| 20260504050704 | 48 | 79 | 0.0 | 0.0 | 0.00 | 0.00 | 0.00 | 61 | 1018.5 |
| 20260504050200 | 48 | 79 | 0.0 | 0.0 | 0.00 | 0.00 | 0.00 | 61 | 1018.6 |
| 20260504045657 | 48 | 79 | 0.0 | 0.0 | 0.00 | 0.00 | 0.00 | 61 | 1018.6 |
| 20260504045152 | 48 | 79 | 0.0 | 0.0 | 0.00 | 0.00 | 0.00 | 61 | 1018.5 |
| 20260504044650 | 48 | 80 | 0.0 | 0.0 | 0.00 | 0.00 | 0.00 | 61 | 1018.5 |
| 20260504044147 | 49 | 80 | 0.0 | 0.0 | 0.00 | 0.00 | 0.00 | 61 | 1018.7 |
| 20260504043644 | 48 | 79 | 0.0 | 0.0 | 0.00 | 0.00 | 0.00 | 60 | 1018.5 |
| 20260504043141 | 48 | 79 | 0.0 | 0.0 | 0.00 | 0.00 | 0.00 | 61 | 1018.6 |
| 20260504042638 | 48 | 79 | 0.0 | 0.0 | 0.00 | 0.00 | 0.00 | 61 | 1018.7 |
| 20260504042135 | 48 | 79 | 0.0 | 0.0 | 0.00 | 0.00 | 0.00 | 62 | 1018.4 |
| 20260504041630 | 48 | 81 | 0.0 | 0.0 | 0.00 | 0.00 | 0.00 | 62 | 1018.5 |
| 20260504041127 | 48 | 81 | 0.0 | 0.0 | 0.00 | 0.00 | 0.00 | 63 | 1018.4 |
| 20260504040624 | 48 | 83 | 0.0 | 0.0 | 0.00 | 0.00 | 0.00 | 63 | 1018.4 |
| 20260504040121 | 48 | 83 | 0.0 | 0.0 | 0.00 | 0.00 | 0.00 | 63 | 1018.4 |
| 20260504035618 | 48 | 166 | 0.0 | 0.0 | 0.00 | 0.00 | 0.00 | 64 | 1018.4 |
| 20260504035114 | 49 | 104 | 0.0 | 0.0 | 0.00 | 0.00 | 0.00 | 64 | 1018.3 |
| 20260504034612 | 49 | 82 | 0.0 | 0.0 | 0.00 | 0.00 | 0.00 | 64 | 1018.5 |
| 20260504034109 | 49 | 82 | 0.0 | 0.0 | 0.00 | 0.00 | 0.00 | 64 | 1018.3 |
| 20260504033607 | 49 | 82 | 0.0 | 0.0 | 0.00 | 0.00 | 0.00 | 64 | 1018.2 |
| 20260504033104 | 50 | 82 | 0.0 | 0.0 | 0.00 | 0.00 | 0.00 | 64 | 1018.3 |
| 20260504032601 | 50 | 82 | 0.0 | 0.0 | 0.00 | 0.00 | 0.00 | 63 | 1018.2 |
| 20260504032058 | 50 | 82 | 0.0 | 0.0 | 0.00 | 0.00 | 0.00 | 64 | 1018.0 |
| 20260504031554 | 50 | 83 | 0.0 | 0.0 | 0.00 | 0.00 | 0.00 | 65 | 1018.0 |
| 20260504031050 | 50 | 83 | 0.0 | 0.0 | 0.00 | 0.00 | 0.00 | 64 | 1017.9 |
| 20260504030548 | 50 | 82 | 0.0 | 0.0 | 0.00 | 0.00 | 0.00 | 64 | 1018.0 |
| 20260504030044 | 50 | 82 | 0.0 | 0.0 | 0.00 | 0.00 | 0.00 | 64 | 1018.1 |
| 20260504025541 | 50 | 82 | 0.0 | 0.0 | 0.00 | 0.00 | 0.00 | 63 | 1018.0 |
| 20260504025038 | 51 | 83 | 0.0 | 0.0 | 0.00 | 0.00 | 0.00 | 62 | 1018.0 |
| 20260504024535 | 51 | 83 | 0.0 | 0.0 | 0.00 | 0.00 | 0.00 | 62 | 1017.9 |
| 20260504024032 | 51 | 83 | 0.0 | 0.0 | 0.00 | 0.00 | 0.00 | 62 | 1018.3 |
| 20260504023529 | 51 | 83 | 0.0 | 0.0 | 0.00 | 0.00 | 0.00 | 59 | 1018.0 |
| 20260504023024 | 51 | 83 | 0.0 | 0.0 | 0.00 | 0.00 | 0.00 | 59 | 1018.0 |
| 20260504022520 | 51 | 83 | 0.0 | 0.0 | 0.00 | 0.00 | 0.00 | 57 | 1018.0 |
| 20260504022017 | 51 | 82 | 0.0 | 0.9 | 0.00 | 0.00 | 0.00 | 57 | 1018.0 |
| 20260504021515 | 51 | 89 | 0.0 | 0.0 | 0.00 | 0.00 | 0.00 | 56 | 1017.9 |
| 20260504021012 | 52 | 89 | 0.0 | 0.0 | 0.00 | 0.00 | 0.00 | 55 | 1017.7 |
| 20260504020508 | 52 | 89 | 0.0 | 0.0 | 0.00 | 0.00 | 0.00 | 54 | 1017.9 |
| 20260504020005 | 52 | 89 | 0.0 | 0.0 | 0.00 | 0.00 | 0.00 | 53 | 1017.9 |
| 20260504015501 | 52 | 89 | 0.0 | 0.0 | 0.00 | 0.00 | 0.00 | 52 | 1017.9 |
| 20260504014957 | 52 | 89 | 0.0 | 0.0 | 0.00 | 0.00 | 0.00 | 50 | 1017.9 |
| 20260504014453 | 53 | 89 | 0.0 | 0.0 | 0.00 | 0.00 | 0.00 | 49 | 1017.8 |
| 20260504013950 | 52 | 89 | 0.0 | 0.0 | 0.00 | 0.00 | 0.00 | 48 | 1017.7 |
| 20260504013449 | 52 | 89 | 0.0 | 0.0 | 0.00 | 0.00 | 0.00 | 49 | 1017.8 |
| 20260504012944 | 53 | 89 | 0.0 | 0.0 | 0.00 | 0.00 | 0.00 | 50 | 1017.5 |
| 20260504012443 | 53 | 89 | 0.0 | 0.0 | 0.00 | 0.00 | 0.00 | 49 | 1017.6 |
| 20260504011940 | 53 | 89 | 0.0 | 0.0 | 0.00 | 0.00 | 0.00 | 48 | 1017.7 |
| 20260504011436 | 53 | 89 | 0.0 | 0.0 | 0.00 | 0.00 | 0.00 | 47 | 1017.6 |
| 20260504010932 | 54 | 89 | 0.0 | 0.0 | 0.00 | 0.00 | 0.00 | 48 | 1017.5 |
| 20260504010428 | 54 | 89 | 0.0 | 0.0 | 0.00 | 0.00 | 0.00 | 46 | 1017.6 |
| 20260504005925 | 54 | 89 | 0.0 | 0.0 | 0.00 | 0.00 | 0.00 | 46 | 1017.7 |
| 20260504005422 | 54 | 89 | 0.0 | 0.0 | 0.00 | 0.00 | 0.00 | 45 | 1017.6 |
| 20260504004919 | 54 | 89 | 0.0 | 0.0 | 0.00 | 0.00 | 0.00 | 46 | 1017.4 |
| 20260504004417 | 54 | 89 | 0.0 | 0.0 | 0.00 | 0.00 | 0.00 | 47 | 1017.4 |
| 20260504003914 | 55 | 89 | 0.0 | 0.0 | 0.00 | 0.00 | 0.00 | 47 | 1017.4 |
| 20260504003410 | 55 | 92 | 0.0 | 0.0 | 0.00 | 0.00 | 0.00 | 45 | 1017.3 |
| 20260504002907 | 56 | 185 | 0.0 | 0.0 | 0.00 | 0.00 | 0.00 | 43 | 1017.3 |
| 20260504002404 | 56 | 185 | 0.0 | 0.0 | 0.00 | 0.00 | 0.00 | 42 | 1017.2 |
| 20260504001901 | 57 | 185 | 0.0 | 0.0 | 0.00 | 0.00 | 0.00 | 39 | 1017.1 |
| 20260504001359 | 57 | 185 | 0.0 | 0.0 | 0.00 | 0.00 | 0.00 | 40 | 1017.1 |
| 20260504000855 | 58 | 186 | 0.0 | 0.0 | 0.00 | 0.00 | 0.00 | 38 | 1017.0 |
| 20260504000354 | 58 | 184 | 0.0 | 0.0 | 0.00 | 0.00 | 0.00 | 38 | 1017.1 |
| 20260503235849 | 59 | 183 | 0.0 | 0.0 | 0.00 | 0.00 | 0.00 | 36 | 1017.1 |
| 20260503235347 | 59 | 183 | 0.0 | 0.0 | 0.00 | 0.00 | 0.00 | 35 | 1016.9 |
| 20260503234844 | 60 | 178 | 0.0 | 0.0 | 0.00 | 0.00 | 0.00 | 35 | 1017.0 |
| 20260503234342 | 60 | 229 | 0.9 | 0.9 | 0.00 | 0.00 | 0.00 | 33 | 1016.8 |
| 20260503233839 | 60 | 179 | 0.0 | 0.0 | 0.00 | 0.00 | 0.00 | 34 | 1016.8 |
| 20260503233335 | 60 | 188 | 0.0 | 0.9 | 0.00 | 0.00 | 0.00 | 32 | 1016.6 |
| 20260503232832 | 60 | 203 | 0.0 | 0.9 | 0.00 | 0.00 | 0.00 | 33 | 1016.6 |
| 20260503232329 | 61 | 94 | 0.0 | 0.0 | 0.00 | 0.00 | 0.00 | 32 | 1016.7 |
| 20260503231827 | 61 | 189 | 0.0 | 0.9 | 0.00 | 0.00 | 0.00 | 33 | 1016.7 |
| 20260503231324 | 61 | 114 | 0.0 | 0.0 | 0.00 | 0.00 | 0.00 | 33 | 1016.7 |
| 20260503230820 | 61 | 92 | 0.0 | 0.0 | 0.00 | 0.00 | 0.00 | 31 | 1016.5 |
| 20260503230317 | 61 | 174 | 0.0 | 0.0 | 0.00 | 0.00 | 0.00 | 33 | 1016.7 |
| 20260503225815 | 62 | 189 | 0.0 | 0.0 | 0.00 | 0.00 | 0.00 | 31 | 1016.6 |
| 20260503225310 | 62 | 239 | 0.9 | 1.7 | 0.00 | 0.00 | 0.00 | 31 | 1016.6 |
| 20260503224807 | 62 | 248 | 0.9 | 1.7 | 0.00 | 0.00 | 0.00 | 31 | 1016.5 |
| 20260503224304 | 62 | 94 | 0.0 | 0.0 | 0.00 | 0.00 | 0.00 | 32 | 1016.6 |
| 20260503223802 | 63 | 245 | 0.9 | 0.9 | 0.00 | 0.00 | 0.00 | 31 | 1016.8 |
| 20260503223259 | 63 | 175 | 0.9 | 0.9 | 0.00 | 0.00 | 0.00 | 32 | 1016.7 |
| 20260503222755 | 62 | 56 | 0.0 | 0.9 | 0.00 | 0.00 | 0.00 | 32 | 1016.6 |
| 20260503222254 | 62 | 58 | 0.9 | 0.9 | 0.00 | 0.00 | 0.00 | 31 | 1016.7 |
| 20260503221751 | 62 | 234 | 1.7 | 1.7 | 0.00 | 0.00 | 0.00 | 31 | 1016.6 |
| 20260503221249 | 63 | 210 | 0.9 | 1.7 | 0.00 | 0.00 | 0.00 | 31 | 1016.6 |
| 20260503220745 | 63 | 75 | 0.0 | 0.9 | 0.00 | 0.00 | 0.00 | 30 | 1016.8 |
| 20260503220243 | 63 | 64 | 0.0 | 0.0 | 0.00 | 0.00 | 0.00 | 30 | 1016.6 |
| 20260503215739 | 63 | 80 | 0.0 | 0.9 | 0.00 | 0.00 | 0.00 | 34 | 1016.7 |
| 20260503215236 | 63 | 72 | 0.9 | 2.6 | 0.00 | 0.00 | 0.00 | 32 | 1016.8 |